Location: Dominion City
(49.1330°N, 97.1500°W)
Time: 08:11:38
(UTC-05:00)

Daily predictions for brighter satellites

Satellite Brightness Start Highest point End
(mag) Time Altitude Azimuth Time Altitude Azimuth Time Altitude Azimuth
Cosmos 1833 4.4 22:19:25 10° SSW 22:25:09 82° WNW 22:30:51 10° NNE
Cosmos 2333 Rocket 2.8 22:19:46 10° NNW 22:25:21 48° NE 22:30:55 10° SE
SL-16 R/B 3.8 22:20:58 10° NNW 22:25:37 25° NE 22:30:16 10° E
SPOT 1/Viking Rocket 3.6 22:20:52 10° SSE 22:26:01 78° ENE 22:31:12 10° NNW
USA 234 4.3 22:20:27 10° ENE 22:26:45 51° NNW 22:33:02 10° W
Cosmos 1707 Rocket 3.5 22:23:19 10° N 22:27:42 80° E 22:32:05 10° SSE
ATLAS 5 CENTAUR R/B 4.4 22:23:21 10° W 22:27:45 28° NNW 22:32:31 10° NNE
Cosmos 1939 Rocket 4.4 22:24:47 10° SSW 22:28:20 32° W 22:31:52 10° NNW
Cosmos 1898 Rocket 4.0 22:24:51 10° S 22:29:37 38° ESE 22:34:26 10° NE
H-2A R/B 3.7 22:25:50 10° SSW 22:29:57 34° W 22:34:06 10° NNW
USA 229 DEB 4.0 22:24:25 10° SW 22:31:22 78° NW 22:38:27 10° NE
USA 229 4.0 22:24:31 10° SW 22:31:28 78° NW 22:38:34 10° NE
Meteor 2-11 Rocket 4.5 22:27:29 10° N 22:33:41 82° E 22:39:49 10° SSE
SeaSat 1 4.5 22:32:01 10° E 22:35:29 19° NE 22:38:57 10° N
Cosmos 1455 3.6 22:32:22 10° NNE 22:35:36 26° ENE 22:38:49 10° SE
Cosmos 1666 Rocket 3.7 22:31:26 10° S 22:35:44 56° E 22:40:07 10° NNE
Nadezhda 1 Rocket 4.5 22:30:38 10° N 22:36:28 45° ENE 22:42:17 10° SE
Cosmos 2150 Rocket 4.4 22:31:51 10° S 22:37:03 46° ESE 22:42:16 10° NNE
COSMOS 2428 3.0 22:31:33 10° NNW 22:37:11 66° WSW 22:42:49 10° SSE
SPOT 5 3.7 22:34:37 10° S 22:39:05 47° W 22:43:49 10° NNW
Cosmos 2297 Rocket 3.7 22:39:31 10° SE 22:43:08 18° E 22:46:46 10° ENE
Cosmos 2219 Rocket 2.2 22:39:38 10° NNW 22:45:16 79° ENE 22:50:35 11° SSE
ARGOS 3.2 22:41:36 10° SSE 22:47:01 85° WSW 22:52:27 10° NNW
Cosmos 1470 Rocket 4.4 22:45:42 11° SSE 22:49:23 33° E 22:53:15 10° NNE
Cosmos 1933 Rocket 4.5 22:46:48 11° SSE 22:50:36 33° E 22:54:38 10° NNE
NOSS 3-1 (A) 3.7 22:45:04 10° SSW 22:50:47 50° ESE 22:57:10 10° NE
Cosmos 1869 4.3 22:49:24 10° N 22:53:07 33° ENE 22:56:15 13° SE
Cosmos 1745 Rocket 4.2 22:47:47 10° SSE 22:53:46 53° E 22:59:44 10° NNE
Cosmos 1726 2.5 22:50:19 10° NNW 22:54:04 64° W 22:57:48 10° S
NOSS 0 Rocket 4.0 22:53:36 10° NNW 22:59:48 90° WSW 23:05:19 13° SSE
CZ-4C R/B 3.0 22:59:54 13° SSE 23:02:55 88° WSW 23:06:26 10° NNW
Cosmos 1980 3.7 22:58:38 10° NNW 23:04:20 81° ENE 23:09:10 14° SSE
USA 32 4.1 22:59:10 10° N 23:04:28 87° W 23:09:42 10° S
Cosmos 292 Rocket 4.0 23:00:19 10° NNW 23:05:04 66° WSW 23:09:18 13° S
ERBS 3.9 23:05:21 16° SSE 23:06:10 18° SE 23:08:35 10° E
Landsat 7 3.9 23:05:56 12° SSE 23:10:19 82° WSW 23:15:07 10° NNW
Cosmos 1271 Rocket 3.1 23:08:03 10° NNW 23:11:51 60° W 23:15:19 12° S
ATLAS 2AS CENTAUR R/B 3.6 23:06:46 10° S 23:13:30 37° ESE 23:20:40 10° NE
Cosmos 2219 3.7 23:08:11 10° SW 23:13:54 65° WNW 23:19:39 10° NNE
Meteor 1-4 Rocket 3.4 23:12:51 10° NNW 23:16:30 47° W 23:19:51 11° S
Cosmos 2237 Rocket 2.2 23:11:10 10° NNW 23:16:55 89° WSW 23:21:31 16° SSE
Meteor 2-10 4.4 23:13:11 10° NNW 23:18:53 75° W 23:24:07 13° S
CZ-4C R/B 4.2 23:13:10 10° NW 23:19:03 33° NNE 23:25:36 10° E
Cosmos 1346 3.4 23:17:15 20° SSE 23:19:04 47° E 23:22:01 10° NNE
Cosmos 2242 Rocket 4.3 23:15:34 10° NNW 23:19:55 51° W 23:24:14 10° S
Cosmos 1703 3.2 23:16:40 10° S 23:20:35 86° WNW 23:24:31 10° N
SL-14 R/B 4.2 23:17:05 10° SSW 23:20:56 49° WNW 23:24:52 10° N
Cosmos 2082 4.0 23:19:48 10° S 23:25:15 49° ESE 23:30:44 10° NE
ATLAS 3B R/B 2.9 23:18:14 10° NW 23:25:26 73° NE 23:31:15 14° SE
Iridium 2 3.8 23:22:18 12° S 23:25:48 78° W 23:29:41 10° N
Terra 1.9 23:22:18 16° SSE 23:26:10 82° WSW 23:30:58 10° NNW
Lacrosse 4 Rocket 2.2 23:22:01 10° NNW 23:26:19 49° NE 23:29:44 16° ESE
Cosmos 1862 Rocket 3.5 23:22:06 10° N 23:26:29 90° NNE 23:29:43 18° S
Cosmos 1937 Rocket 3.5 23:23:02 10° SSW 23:28:16 84° ESE 23:33:30 10° NNE
Spot 4 3.9 23:26:34 17° SSE 23:30:18 88° ENE 23:35:12 10° NNW
Sich 1 4.0 23:27:21 10° SSW 23:31:36 46° WNW 23:35:53 10° N
CARTOSAT-1 3.8 23:28:15 16° S 23:31:38 67° WSW 23:35:58 10° NNW
USA 238 DEB 4.4 23:27:55 10° NW 23:34:49 52° NE 23:41:39 10° ESE
USA 238 4.4 23:28:02 10° NW 23:34:54 51° NE 23:41:44 10° ESE
Cosmos 1633 Rocket 4.1 23:31:12 10° SSW 23:35:24 45° WNW 23:39:37 10° N
Cosmos 1900 4.4 23:31:15 10° NW 23:36:16 79° NE 23:39:48 19° SE
NOSS 3-1 (C) 3.7 23:31:20 10° SW 23:37:21 76° NW 23:44:11 10° NE
Cosmos 1626 2.1 23:35:44 18° S 23:38:26 80° E 23:42:13 10° NNE
Cosmos 990 Rocket 3.9 23:33:55 10° SSW 23:39:02 76° ESE 23:44:12 10° NNE
COSMOS 2455 2.9 23:42:58 10° NW 23:49:03 90° NE 23:53:21 20° SSE
Cosmos 1269 Rocket 4.0 23:45:37 10° NNW 23:50:59 88° ENE 23:54:28 22° SSE
Tiangong 1 3.1 23:48:31 10° SW 23:49:21 15° SW 23:49:21 15° SW
Cosmos 1933 3.3 23:48:32 10° N 23:52:36 75° E 23:54:51 26° SSE
H-2A R/B 2.9 23:48:41 14° S 23:53:05 47° W 23:58:21 10° NNW
